Regional Weather Roundup
Issued by NWS Wakefield, VA

Current Version | Previous Version | Text Only | Print | Product List | Glossary Off
Versions: 1 2 3 4 5 6 7 8 9 10 11 12 13 14 15 16 17 18 19 20 21 22 23 24 25 26 27 28 29 30 31 32 33 34 35 36 37 38 39 40 41 42 43 44 45 46 47 48 49 50

000
ASUS41 KAKQ 232210
RWRAKQ

REGIONAL WEATHER ROUNDUP
NATIONAL WEATHER SERVICE WAKEFIELD VA
600 PM EDT TUE SEP 23 2014

Note: "fair" indicates few or no clouds below 12,000 feet with no
significant weather and/or obstructions to visibility. * = Denotes
station may not report precipitation (e.g., rain,snow,etc.),
thunder or fog.

VAZ042-051-052>054-056-232300-
NORTHERN VIRGINIA

CITY           SKY/WX    TMP DP  RH WIND       PRES   REMARKS
WASH NATIONAL  PTSUNNY   73  41  31 E8        30.32R
DULLES         PTSUNNY   67  43  41 NE5       30.32R
FORT BELVOIR   MOSUNNY   67  47  48 SE3       30.32R
QUANTICO       PTSUNNY   67  49  52 W5        30.33R
FREDERICKSBRG* MOSUNNY   68  44  42 NE6       30.31R
STAFFORD*      MOSUNNY   65  47  51 CALM      30.36S
WARRENTON      MOSUNNY   69  52  54 NW5       30.31S
CULPEPER*      MOSUNNY   70  43  37 N6        30.33R
MANASSAS*      NOT AVBL
LEESBURG*      PTSUNNY   68  48  49 NW7       30.33S
WINCHESTER     PTSUNNY   66  39  37 E6        30.32F HAZE
FRONT ROYAL*   MOCLDY    64  43  45 NE3       30.32S
LURAY*         MOCLDY    68  41  37 NE6       30.33R
$$

VAZ048-049-060>072-079>083-232300-
CENTRAL AND SOUTH CENTRAL VIRGINIA...AND NORTH CENTRAL NORTH CAROLINA

CITY           SKY/WX    TMP DP  RH WIND       PRES   REMARKS
RICHMOND       PTSUNNY   66  44  45 NE3       30.31R
CHESTERFIELD*  MOCLDY    64  39  39 NE3       30.32S
PETERSBURG*    PTSUNNY   64  47  54 E5        30.31S
HANOVER        PTSUNNY   63  51  65 CALM      30.33R
TAPPAHANNOCK*  PTSUNNY   64  42  43 CALM      30.33R
CHARLOTTSVILLE PTSUNNY   66  42  41 E8        30.31S
ORANGE*        PTSUNNY   66  43  42 NW3       30.33S
LOUISA*        PTSUNNY   64  48  55 CALM      30.31R
FARMVILLE*     CLOUDY    64  46  52 CALM      30.31R
CREWE*         CLOUDY    61  48  63 CALM      30.31F
FORT PICKETT*  CLOUDY    60  50  69 NW3       30.31S
LUNENBURG*     CLOUDY    60  52  75 N3        30.30F
SOUTH HILL*    CLOUDY    63  54  72 N5        30.35F
LAWRENCEVILLE* CLOUDY    61  53  76 CALM      30.30S
ROANOKE RAPIDS CLOUDY    61  50  67 N7        30.29S
RALEIGH        CLOUDY    60  50  69 NE9       30.30R
$$

VAZ088>098-232300-
SOUTHEAST VIRGINIA

CITY           SKY/WX    TMP DP  RH WIND       PRES   REMARKS
NORFOLK        CLOUDY    64  51  62 NE14      30.28F
VIRGINIA BEACH NOT AVBL
NORFOLK NAVAL  CLOUDY    65  51  60 NE14      30.30F
WEST POINT*    MOSUNNY   65  45  47 NE6       30.33S
NEWPORT NEWS   CLOUDY    67  51  56 NE9       30.30F
LANGLEY AFB    CLOUDY    63  51  66 NE10      30.29F
FORT EUSTIS    PTSUNNY   65  46  50 NE9       30.29F
WILLIAMSBURG*  MOSUNNY   66  52  59 NE3       30.32S
HR EXEC AP*    CLOUDY    63  52  67 N5        30.31S
FRANKLIN*      PTSUNNY   63  52  67 N3        30.30S
WAKEFIELD      MOSUNNY   64  49  57 NE5       30.31S
$$

VAZ020-022-025-037-045-232300-
WEST CENTRAL AND SOUTHWEST VIRGINIA

CITY           SKY/WX    TMP DP  RH WIND       PRES   REMARKS
STAUNTON*      PTSUNNY   67  40  36 NE8       30.33S
HOT SPRINGS VA MOSUNNY   52  33  48 SE3       30.37S
LYNCHBURG      CLOUDY    58  52  80 CALM      30.33S
DANVILLE       CLOUDY    60  48  64 NE6       30.31F
SOUTH BOSTON*  NOT AVBL
MARTINSVILLE   CLOUDY    58  51  78 CALM      30.33F
ROANOKE        CLOUDY    61  49  64 CALM      30.33F
BLACKSBURG     CLOUDY    59  54  82 E3        30.35S
DUBLIN*        CLOUDY    61  53  75 NE3       30.34S
MARION*        PTSUNNY   62  51  68 E3        30.34F
HILLSVILLE*    CLOUDY    56  52  84 CALM      30.32F
RICHLANDS*     CLEAR     66  53  61 SE3       30.30S
WISE*          MOSUNNY   68  48  49 N7        30.30S
ABINGDON*      PTSUNNY   67  52  57 SE8       30.28S
$$

MDZ021>025-VAZ099-100-232300-
SOUTHERN MARYLAND AND THE DELMARVA PENINSULA

CITY           SKY/WX    TMP DP  RH WIND       PRES   REMARKS
PATUXENT RIVER MOSUNNY   63  44  50 NE3       30.32S
BAY BRIDGE APT   N/A     66  43  42 CALM      30.33R
LEONARDTOWN    SUNNY     63  43  48 CALM      30.34S
DOVER          PTSUNNY   64  50  58 SE6       30.32R
GEORGETOWN     CLOUDY    64  45  49 E10       30.34R
EASTON         PTSUNNY   70  48  46 CALM      30.36R
CAMBRIDGE      MOSUNNY   70  45  40 CALM      30.32S
SALISBURY      CLOUDY    66  49  54 NE6       30.33R
OCEAN CITY     CLOUDY    62  49  62 N5        30.33R
WALLOPS ISLAND CLOUDY    63  50  62 NE7       30.33R
ACCOMACK*      CLOUDY    61  50  67 NE5       30.32S
$$

NCZ012>017-030>032-232300-
EASTERN NORTH CAROLINA

CITY           SKY/WX    TMP DP  RH WIND       PRES   REMARKS
ELIZABETH CITY CLOUDY    64  56  75 N13       30.26S
AHOSKIE*       PTSUNNY   61  51  70 N7        30.29F
EDENTON*       LGT RAIN  62  56  80 N7        30.26S
CURRITUCK*     CLOUDY    66  53  64 NE12G21   30.27S
KILL DEVIL HLS LGT RAIN  66  58  75 NE14G20   30.23R
MANTEO         CLOUDY    65  58  80 N15G22    30.24R
CAPE HATTERAS  CLOUDY    68  63  84 NE14G25   30.17S
TARBORO*       CLOUDY    63  54  72 NE5       30.29R
GOLDSBORO      CLOUDY    61  59  94 N2        30.24S
WASHINGTON     CLOUDY    61  58  92 N7        30.25S
GREENVILLE     LGT RAIN  63  55  77 N8        30.27S
NEW BERN       LGT RAIN  64  59  83 N12G22    30.22F
WILMINGTON     CLOUDY    61  59  93 N14       30.19S
$$

VAZ048-232300-
ELSEWHERE

CITY           SKY/WX    TMP DP  RH WIND       PRES   REMARKS
HARRISBURG PA  MOSUNNY   70  54  56 CALM      30.30S
BALTIMORE      PTSUNNY   68  46  45 E7        30.32R
ANNAPOLIS      SUNNY     67  47  48 E6        30.32R
ANDREWS AFB    MOSUNNY   65  49  57 SE8       30.32R
WILMINGTON DE  SUNNY     68  43  40 SE5       30.33R
PHILADELPHIA   MOCLDY    71  42  35 SE3       30.32R
WILDWOOD NJ*   CLOUDY    64  46  52 NE3       30.35R
ATLANTIC CITY  CLOUDY    63  51  65 E5        30.33R
HENDERSON NC   CLOUDY    58  49  71 CALM      30.30S
GREENSBORO     CLOUDY    57  48  72 NE3       30.31R
ROCKY MOUNT    CLOUDY    63  52  67 N9        30.29R
FAYETTEVILLE   CLOUDY    61  55  81 N12       30.25R
CHARLOTTE      LGT RAIN  57  50  77 N7        30.29S
$$

VAZ100-232300-
MARINE

STATION/POSITION TIME  TEMP    WIND        PRES    WAVE   SWELL
                       AIR SEA DIR/SP/G            HT/PER HT/PER
                 (UTC) (F)     (DEG/KT/KT) (MB)    (FT/S) (FT/S)
44066 TX TWR #4  2200   62 70   30/  6/  8 1026.7R   2/ 7   2/ 7
CAPE MAY NJ      2200   62 74  260/  3/  4 1026.5F
LEWES DE         2200   62 69   80/  3/  4 1027.1R
15NM E FENWICK I 2200   64 71              1026.5R   2/10
OCEAN-CITY-INLET 2100   62 70   30/  5/  8 1026.6R
WACHAPREAGUE VA  2200   63 69   60/ 10/ 11 1026.6F
THOMAS POINT MD  2200   66 72   70/  5/  6 1027.8R
GOOSES REEF MD   2200   65      20/  6/  8 1027.3S
COVE POINT MD    2200   63      40/  7/ 10 1026.8R
SOLOMONS ISLAND  2200      74                N/A
BISHOPS HEAD MD  2200   66 68   50/  3/  5 1026.4S
PINEY POINT MD   2200          100/  8/  9   N/A
POTOMAC MD       2200   65      60/  6/ 10 1026.3S
CAMBRIDGE MD     2200   67 71   70/  7/ 11 1026.3S
LEWISETTA VA     2200   63 70  100/  5/  7 1026.4F
RAPPAHANNOCK LGT 2200           50/ 10/ 11 1026.8F
STINGRAY PT      2200   64      50/  8/ 12   N/A
YORK RVR RNG VA  2200   63      50/ 11/ 13 1025.8F
YORKTOWN VA      2200   63 75   40/  9/ 11 1026.1S
JAMESTOWN VA     2200   63      70/  6/ 12   N/A
DOMINION TERM VA 2200   64      30/  6/ 12 1025.9F
KIPTOPEKE VA     2100      76  360/  6/  8   N/A
CHES BAY BRIDGE  2100   63 74   20/ 10/ 15 1025.3F
CAPE HENRY VA    2200   64      20/ 17/ 21 1024.5R
CHESAPEAKE LGHT  2100   64      40/ 16/ 18 1026.0F
WILLOUBY STN VA  2200   63      30/ 11/ 14 1024.4S
S CRANEY ISL VA  2200          360/ 12/ 16 1025.2S
CAPE HENRY BUOY  2200      74                N/A     4/ 6
1ST LANDING BUOY 2200   65      20/ 14/ 17 1025.4S
CAPE CHARLES BUO 2200      73                N/A     3/ 4   2/ 7
OFFSHORE WE BUOY 2100      73                N/A     4/ 5   2/10
64NM E OF VA BCH 2200   68 75   40/ 17/ 21 1023.6F   4/ 7   2/ 8
DUCK PIER NC     2200   67 73   30/ 20/ 24 1023.4R
44100 DUCK FRF   2200      74                N/A     5/ 6
44056 DUCK FRF   2200                        N/A     4/ 6
OREGON INLET NC  2200   68 73   20/ 20/ 24 1022.9F
DIAMOND SHLS NC  2200   74      10/ 25/ 33 1019.7F   7/ 6
CAPE LOOKOUT NC  2100   66      20/ 23/ 27 1021.3F
$$



USA.gov is the U.S. government's official web portal to all federal, state and local government web resources and services.